Terminal Aerodrome Forecast
Issued by NWS

Home | Current Version | Previous Version | Text Only | Print | Product List | Glossary Off
Versions: 1 2 3 4 5 6 7 8 9 10 11 12 13 14 15 16 17 18

000
FTUS41 KCLE 061503 AAB
TAFFDY
TAF AMD
KFDY 061503Z 0615/0712 08012KT 5SM -RA OVC025
      TEMPO 0615/0619 09010KT 2SM -RA BR OVC008
     FM062200 27010KT P6SM OVC025
     FM070600 27012KT P6SM SCT025 BKN200=

USA.gov is the U.S. government's official web portal to all federal, state and local government web resources and services.